Regional Weather Roundup
Issued by NWS

Home | Current Version | Previous Version | Text Only | Print | Product List | Glossary On
Versions: 1 2 3 4 5 6 7 8 9 10 11 12 13 14 15 16 17 18 19 20 21 22 23 24 25 26 27 28 29 30 31 32 33 34 35 36 37 38 39 40 41 42 43 44 45 46 47 48 49 50
000
ASUS43 KFSD 252102
RWRSD

WEATHER ROUNDUP FOR SOUTH DAKOTA
NATIONAL WEATHER SERVICE SIOUX FALLS SD
400 PM CDT MON MAY 25 2015

NOTE: "FAIR" INDICATES FEW OR NO CLOUDS BELOW 12,000 FEET WITH NO
SIGNIFICANT WEATHER AND/OR OBSTRUCTIONS TO VISIBILITY.


SDZ001>005-009-010-012>017-252200-
NORTHWEST AND NORTH CENTRAL SOUTH DAKOTA

CITY           SKY/WX    TMP DP  RH WIND       PRES   REMARKS
FAITH            N/A     56  52  86 E18       29.85S
MOBRIDGE       CLOUDY    65  56  72 E13       29.83R
$$

SDZ012>016-024>037-041>051-057-063-072>074-252200-
SOUTHWEST AND SOUTH CENTRAL SOUTH DAKOTA

CITY           SKY/WX    TMP DP  RH WIND       PRES   REMARKS
RAPID CTY ARPT LGT RAIN  59  53  80 N12       29.86R
PIERRE         CLOUDY    62  54  74 NE14      29.81S
ELLSWORTH AFB  RAIN      57  55  94 N10       29.86  FOG
PHILIP         CLOUDY    63  55  75 NE15      29.82R
PINE RIDGE     CLOUDY    61  49  64 CALM      29.83S
WINNER         CLOUDY    63  55  75 SE9       29.80S
$$

SDZ004>011-016>023-039-040-252200-
NORTHEAST SOUTH DAKOTA

CITY           SKY/WX    TMP DP  RH WIND       PRES   REMARKS
ABERDEEN       PTSUNNY   68  52  56 E21G28    29.81R
WATERTOWN      CLOUDY    58  53  84 N12       29.79R
BROOKINGS      CLOUDY    63  57  82 NW10      29.79S
$$

SDZ017-020-022-023-036>040-048>070-252200-
SOUTHEAST SOUTH DAKOTA

CITY           SKY/WX    TMP DP  RH WIND       PRES   REMARKS
SIOUX FALLS    CLOUDY    70  58  65 W7        29.76S
HURON          CLOUDY    66  55  67 NE14      29.79S
CHAMBERLAIN    DRIZZLE   61  58  90 N6        29.80R
MITCHELL       CLOUDY    68  58  70 N8        29.78R
YANKTON        MOSUNNY   73  55  53 S13       29.72F
$$

ABBREVIATIONS USED IN REMARKS
   TC - TEMPERATURE IN CELSIUS
  WCI - WIND CHILL INDEX
   HX - HEAT INDEX
  VSB - VISIBILITY



USA.gov is the U.S. government's official web portal to all federal, state and local government web resources and services.